Location: Bidwell Hollow
(37.7387°N, 90.1707°W)
Time: 10:59:52
(UTC+00:00)

Transit 2A - Pass Details

Date: 16 May 2026
Orbit: 596 x 948 km, 66.7° (Epoch: 10 June)

Event Time Altitude Azimuth Distance (km) Brightness Sun altitude
Rises 23:07:45 0° 265° (W) 3,564 10.9 21.2°
Reaches altitude 10° 23:12:11 10° 295° (WNW) 2,567 10.5 20.3°
Maximum altitude 23:14:29 12° 318° (NW) 2,374 9.5 19.9°
Drops below altitude 10° 23:16:44 10° 341° (NNW) 2,491 9.1 19.4°
Sets 23:20:54 0° 11° (N) 3,340 9.3 18.6°
